Tracking 19817 objects as of 18-Aug-2019
HD Live streaming from Space Station
objects crossing your sky now

FENGYUN 1C DEB

Track FENGYUN 1C DEB now!
10-day predictions


NORAD ID: 38715
Int'l Code: 1999-025ETG
Perigee: 771.1 km
Apogee: 1,006.3 km
Inclination: 98.2 °
Period: 102.6 minutes
Semi major axis: 7259 km
RCS: 0.0075 m2 (small)
Launch date: May 10, 1999
Source: People's Republic of China (PRC)
Launch site: Taiyaun Space Center, China (TSC)

Note: This is SATELLITE DEBRIS
aabbcc
Your satellite tracking list
Your tracking list is empty




NASA's NSSDC Master Catalog

Two Line Element Set (TLE):
1 38715U 99025ETG 19228.99318038  .00000590  00000-0  35581-3 0  9991
2 38715  98.2154 155.0234 0161970 107.0058 254.8930 14.03541395605311
Source of the keplerian elements: AFSPC